Regional Weather Roundup
Issued by NWS

Home | Current Version | Previous Version | Text Only | Print | Product List | Glossary Off
Versions: 1 2 3 4 5 6 7 8 9 10 11 12 13 14 15 16 17 18 19 20 21 22 23 24 25 26 27 28 29 30 31 32 33 34 35 36 37 38 39 40 41 42 43 44 45 46 47 48 49 50

000
ASUS43 KLSX 060959
RWRMO

WEATHER SUMMARY FOR MISSOURI
NATIONAL WEATHER SERVICE SPRINGFIELD MO
500 AM CDT WED MAY 06 2015

NOTE: "FAIR" INDICATES FEW OR NO CLOUDS BELOW 12,000 FEET WITH NO
       SIGNIFICANT WEATHER AND/OR OBSTRUCTIONS TO VISIBILITY.
       CURRENT SKY AND/OR WEATHER CONDITIONS ARE NOT AVAILABLE FOR
       CHILLICOTHE AND FARMINGTON.

MOZ001>031-035>038-043-044-053-054-061100-
...NORTHERN AND WESTERN MISSOURI...

CITY           SKY/WX    TMP DP  RH WIND       PRES   REMARKS
KANSAS CTY INT CLOUDY    67  56  67 SE17      29.93F
KANSAS C DTWN  CLOUDY    70  54  56 SE12G20   29.93F
LEE`S SUMMIT   MOCLDY    68  54  60 SE9G20    29.96F
ST JOSEPH      MOCLDY    66  57  72 SE13      29.92F
CHILLICOTHE      N/A     65  57  75 SE8       30.00F
KIRKSVILLE     PTCLDY    63  57  81 SE10      30.05S

$$
MOZ066>068-077>081-088>096-101>105-061100-
...SOUTHWEST MISSOURI...

CITY           SKY/WX    TMP DP  RH WIND       PRES   REMARKS
SPRINGFIELD    MOCLDY    66  52  60 SE14      30.03S
JOPLIN         MOCLDY    68  55  63 MISG      29.98R

$$
MOZ032>034-039>042-045>050-055>058-069>072-061100-
...CENTRAL MISSOURI...

CITY           SKY/WX    TMP DP  RH WIND       PRES   REMARKS
COLUMBIA       PTCLDY    61  54  77 SE8       30.06S
JEFFERSON CITY PTCLDY    63  53  70 E7        30.06S
ROLLA          CLEAR     62  51  67 SE10      30.08S
SEDALIA        MOCLDY    62  54  74 SE8       30.02S
OSAGE BEACH    PTCLDY    63  52  67 S6        30.05S

$$
MOZ051-052-059>065-061100-
...EAST CENTRAL MISSOURI...

CITY           SKY/WX    TMP DP  RH WIND       PRES   REMARKS
ST LOUIS INTL  PTCLDY    69  55  60 S8        30.11S
SPIRIT OF STL  CLEAR     65  54  67 S3        30.10R
ST CHARLES     PTCLDY    60  54  80 E6        30.10S

$$
MOZ072>076-082>087-097>100-106>115-061100-
...SOUTH CENTRAL AND SOUTHEAST MISSOURI...

CITY           SKY/WX    TMP DP  RH WIND       PRES   REMARKS
CAPE GIRARDEAU CLEAR     59  54  83 CALM      30.13R
FARMINGTON     CLEAR     55  54  94 CALM      30.16S
POPLAR BLUFF   CLEAR     55  51  86 NW5       30.11S
WEST PLAINS    CLEAR     57  49  74 CALM      30.11S

$$



USA.gov is the U.S. government's official web portal to all federal, state and local government web resources and services.